Time,TemperatureF,DewpointF,PressureIn,WindDirection,WindDirectionDegrees,WindSpeedMPH,WindSpeedGustMPH,Humidity,HourlyPrecipIn,Conditions,Clouds,dailyrainin,SoftwareType,DateUTC
2013-08-20 00:10:00,57.1,49.0,29.88,North,360,0.0,-999.0,73,-99.99,,,0.00,weatherlink.com 1.10,2013-08-20 07:10:00,
2013-08-20 00:25:00,56.7,48.0,29.88,North,360,0.0,-999.0,73,-99.99,,,0.00,weatherlink.com 1.10,2013-08-20 07:25:00,
2013-08-20 00:40:00,56.4,48.0,29.88,North,360,0.0,-999.0,74,-99.99,,,0.00,weatherlink.com 1.10,2013-08-20 07:40:00,
2013-08-20 00:55:00,56.0,48.0,29.87,North,360,0.0,-999.0,75,-99.99,,,0.00,weatherlink.com 1.10,2013-08-20 07:55:00,
2013-08-20 01:10:00,55.8,48.0,29.87,North,360,0.0,-999.0,74,-99.99,,,0.00,weatherlink.com 1.10,2013-08-20 08:10:00,
2013-08-20 01:25:00,55.7,48.0,29.87,North,360,0.0,-999.0,74,-99.99,,,0.00,weatherlink.com 1.10,2013-08-20 08:25:00,
2013-08-20 01:40:00,55.4,48.0,29.87,North,360,0.0,-999.0,75,-99.99,,,0.00,weatherlink.com 1.10,2013-08-20 08:40:00,
2013-08-20 01:55:00,55.1,47.0,29.87,North,360,0.0,-999.0,75,-99.99,,,0.00,weatherlink.com 1.10,2013-08-20 08:55:00,
2013-08-20 02:10:00,55.1,47.0,29.87,North,360,1.0,-999.0,74,-99.99,,,0.00,weatherlink.com 1.10,2013-08-20 09:10:00,
2013-08-20 02:25:00,55.3,47.0,29.87,North,360,0.0,-999.0,73,-99.99,,,0.00,weatherlink.com 1.10,2013-08-20 09:25:00,
2013-08-20 02:40:00,55.2,47.0,29.87,NE,34,0.0,-999.0,73,-99.99,,,0.00,weatherlink.com 1.10,2013-08-20 09:40:00,
2013-08-20 02:55:00,54.8,47.0,29.86,NE,34,0.0,-999.0,75,-99.99,,,0.00,weatherlink.com 1.10,2013-08-20 09:55:00,
2013-08-20 03:10:00,54.3,47.0,29.86,NE,34,1.0,-999.0,75,-99.99,,,0.00,weatherlink.com 1.10,2013-08-20 10:10:00,
2013-08-20 03:25:00,54.2,46.0,29.86,NE,44,0.0,-999.0,75,-99.99,,,0.00,weatherlink.com 1.10,2013-08-20 10:25:00,
2013-08-20 03:40:00,54.3,47.0,29.86,NE,34,0.0,-999.0,75,-99.99,,,0.00,weatherlink.com 1.10,2013-08-20 10:40:00,
2013-08-20 03:55:00,53.9,46.0,29.86,NE,35,0.0,-999.0,75,-99.99,,,0.00,weatherlink.com 1.10,2013-08-20 10:55:00,
2013-08-20 04:10:00,53.9,47.0,29.86,NE,34,0.0,-999.0,76,-99.99,,,0.00,weatherlink.com 1.10,2013-08-20 11:10:00,
2013-08-20 04:25:00,53.8,46.0,29.86,NE,34,0.0,-999.0,76,-99.99,,,0.00,weatherlink.com 1.10,2013-08-20 11:25:00,
2013-08-20 04:40:00,53.5,46.0,29.87,NE,34,0.0,-999.0,76,-99.99,,,0.00,weatherlink.com 1.10,2013-08-20 11:40:00,
2013-08-20 04:55:00,53.3,46.0,29.86,NE,34,0.0,-999.0,77,-99.99,,,0.00,weatherlink.com 1.10,2013-08-20 11:55:00,
2013-08-20 05:10:00,52.7,46.0,29.86,NE,34,0.0,-999.0,78,-99.99,,,0.00,weatherlink.com 1.10,2013-08-20 12:10:00,
2013-08-20 05:25:00,52.5,46.0,29.87,NE,34,0.0,-999.0,78,-99.99,,,0.00,weatherlink.com 1.10,2013-08-20 12:25:00,
2013-08-20 05:40:00,52.6,46.0,29.87,NE,39,0.0,-999.0,77,-99.99,,,0.00,weatherlink.com 1.10,2013-08-20 12:40:00,
2013-08-20 05:55:00,52.9,46.0,29.87,NE,41,0.0,-999.0,77,-99.99,,,0.00,weatherlink.com 1.10,2013-08-20 12:55:00,
2013-08-20 06:10:00,53.0,46.0,29.88,NE,41,0.0,-999.0,76,-99.99,,,0.00,weatherlink.com 1.10,2013-08-20 13:10:00,
2013-08-20 06:25:00,53.2,45.0,29.88,NE,41,0.0,-999.0,75,-99.99,,,0.00,weatherlink.com 1.10,2013-08-20 13:25:00,
2013-08-20 06:40:00,53.4,46.0,29.88,NE,41,0.0,-999.0,76,-99.99,,,0.00,weatherlink.com 1.10,2013-08-20 13:40:00,
2013-08-20 06:55:00,54.6,46.0,29.88,ENE,64,1.0,-999.0,74,-99.99,,,0.00,weatherlink.com 1.10,2013-08-20 13:55:00,
2013-08-20 07:10:00,56.6,47.0,29.89,NE,36,0.0,-999.0,70,-99.99,,,0.00,weatherlink.com 1.10,2013-08-20 14:10:00,
2013-08-20 07:25:00,58.6,49.0,29.89,NE,36,0.0,-999.0,70,-99.99,,,0.00,weatherlink.com 1.10,2013-08-20 14:25:00,
2013-08-20 07:40:00,60.8,49.0,29.89,NE,36,0.0,-999.0,66,-99.99,,,0.00,weatherlink.com 1.10,2013-08-20 14:40:00,
2013-08-20 07:56:00,62.9,50.0,29.89,NE,36,0.0,-999.0,63,-99.99,,,0.00,weatherlink.com 1.10,2013-08-20 14:56:00,
2013-08-20 08:11:00,65.4,50.0,29.89,NE,36,0.0,-999.0,58,-99.99,,,0.00,weatherlink.com 1.10,2013-08-20 15:11:00,
2013-08-20 08:26:00,67.5,51.0,29.89,NE,36,0.0,-999.0,56,-99.99,,,0.00,weatherlink.com 1.10,2013-08-20 15:26:00,
2013-08-20 08:41:00,69.9,49.0,29.89,NE,40,0.0,-999.0,47,-99.99,,,0.00,weatherlink.com 1.10,2013-08-20 15:41:00,
2013-08-20 08:56:00,72.1,48.0,29.89,SSW,203,1.0,-999.0,43,-99.99,,,0.00,weatherlink.com 1.10,2013-08-20 15:56:00,
2013-08-20 09:11:00,73.9,49.0,29.89,SW,216,3.0,-999.0,42,-99.99,,,0.00,weatherlink.com 1.10,2013-08-20 16:11:00,
2013-08-20 09:26:00,75.1,50.0,29.89,South,181,3.0,-999.0,41,-99.99,,,0.00,weatherlink.com 1.10,2013-08-20 16:26:00,
2013-08-20 09:41:00,75.5,50.0,29.89,West,263,0.0,-999.0,41,-99.99,,,0.00,weatherlink.com 1.10,2013-08-20 16:41:00,
2013-08-20 09:56:00,75.9,50.0,29.90,SSW,203,0.0,-999.0,41,-99.99,,,0.00,weatherlink.com 1.10,2013-08-20 16:56:00,
2013-08-20 10:11:00,76.6,50.0,29.90,SSW,203,3.0,-999.0,40,-99.99,,,0.00,weatherlink.com 1.10,2013-08-20 17:11:00,
2013-08-20 10:26:00,77.4,50.0,29.90,South,189,2.0,-999.0,39,-99.99,,,0.00,weatherlink.com 1.10,2013-08-20 17:26:00,
2013-08-20 10:41:00,77.9,50.0,29.89,South,184,2.0,-999.0,37,-99.99,,,0.00,weatherlink.com 1.10,2013-08-20 17:41:00,
2013-08-20 10:56:00,78.4,48.0,29.89,SSE,167,2.0,-999.0,34,-99.99,,,0.00,weatherlink.com 1.10,2013-08-20 17:56:00,
2013-08-20 11:11:00,79.0,47.0,29.89,SSW,213,4.0,-999.0,33,-99.99,,,0.00,weatherlink.com 1.10,2013-08-20 18:11:00,
2013-08-20 11:26:00,79.4,48.0,29.89,SSW,211,5.0,-999.0,33,-99.99,,,0.00,weatherlink.com 1.10,2013-08-20 18:26:00,
2013-08-20 11:41:00,79.9,48.0,29.88,SSW,213,1.0,-999.0,33,-99.99,,,0.00,weatherlink.com 1.10,2013-08-20 18:41:00,
2013-08-20 11:56:00,79.9,48.0,29.88,SSW,207,6.0,-999.0,33,-99.99,,,0.00,weatherlink.com 1.10,2013-08-20 18:56:00,
2013-08-20 12:11:00,80.6,50.0,29.87,SSW,205,2.0,-999.0,34,-99.99,,,0.00,weatherlink.com 1.10,2013-08-20 19:11:00,
2013-08-20 12:26:00,81.5,49.0,29.86,WSW,240,3.0,-999.0,32,-99.99,,,0.00,weatherlink.com 1.10,2013-08-20 19:26:00,
2013-08-20 12:41:00,81.8,50.0,29.85,South,174,2.0,-999.0,33,-99.99,,,0.00,weatherlink.com 1.10,2013-08-20 19:41:00,
2013-08-20 12:56:00,82.6,50.0,29.85,WSW,255,3.0,-999.0,32,-99.99,,,0.00,weatherlink.com 1.10,2013-08-20 19:56:00,
2013-08-20 13:12:00,83.0,48.0,29.84,ESE,103,0.0,-999.0,29,-99.99,,,0.00,weatherlink.com 1.10,2013-08-20 20:12:00,
2013-08-20 13:27:00,83.6,49.0,29.83,SW,221,3.0,-999.0,30,-99.99,,,0.00,weatherlink.com 1.10,2013-08-20 20:27:00,
2013-08-20 13:42:00,83.7,48.0,29.83,WSW,245,0.0,-999.0,29,-99.99,,,0.00,weatherlink.com 1.10,2013-08-20 20:42:00,
2013-08-20 13:57:00,84.8,48.0,29.82,West,275,2.0,-999.0,28,-99.99,,,0.00,weatherlink.com 1.10,2013-08-20 20:57:00,
2013-08-20 14:12:00,84.3,47.0,29.82,SW,229,2.0,-999.0,27,-99.99,,,0.00,weatherlink.com 1.10,2013-08-20 21:12:00,
2013-08-20 14:27:00,83.2,46.0,29.80,WNW,284,1.0,-999.0,27,-99.99,,,0.00,weatherlink.com 1.10,2013-08-20 21:27:00,
2013-08-20 14:42:00,84.5,47.0,29.80,South,180,0.0,-999.0,27,-99.99,,,0.00,weatherlink.com 1.10,2013-08-20 21:42:00,
2013-08-20 14:57:00,85.2,49.0,29.79,NW,307,3.0,-999.0,28,-99.99,,,0.00,weatherlink.com 1.10,2013-08-20 21:57:00,
2013-08-20 15:12:00,84.4,46.0,29.78,NW,311,1.0,-999.0,26,-99.99,,,0.00,weatherlink.com 1.10,2013-08-20 22:12:00,
2013-08-20 15:27:00,83.2,48.0,29.78,ENE,61,0.0,-999.0,29,-99.99,,,0.00,weatherlink.com 1.10,2013-08-20 22:27:00,
2013-08-20 15:42:00,82.9,48.0,29.78,NNE,28,0.0,-999.0,30,-99.99,,,0.00,weatherlink.com 1.10,2013-08-20 22:42:00,
2013-08-20 15:57:00,82.2,48.0,29.77,ESE,118,0.0,-999.0,30,-99.99,,,0.00,weatherlink.com 1.10,2013-08-20 22:57:00,
2013-08-20 16:12:00,83.7,47.0,29.76,SW,229,1.0,-999.0,28,-99.99,,,0.00,weatherlink.com 1.10,2013-08-20 23:12:00,
2013-08-20 16:27:00,84.0,47.0,29.76,West,267,0.0,-999.0,27,-99.99,,,0.00,weatherlink.com 1.10,2013-08-20 23:27:00,
2013-08-20 16:42:00,84.2,48.0,29.75,WSW,250,0.0,-999.0,28,-99.99,,,0.00,weatherlink.com 1.10,2013-08-20 23:42:00,
2013-08-20 16:57:00,83.5,47.0,29.75,WSW,240,0.0,-999.0,28,-99.99,,,0.00,weatherlink.com 1.10,2013-08-20 23:57:00,
2013-08-20 17:12:00,83.3,47.0,29.75,SSW,207,0.0,-999.0,28,-99.99,,,0.00,weatherlink.com 1.10,2013-08-21 00:12:00,
2013-08-20 17:27:00,83.5,46.0,29.75,South,191,1.0,-999.0,27,-99.99,,,0.00,weatherlink.com 1.10,2013-08-21 00:27:00,
2013-08-20 17:42:00,83.0,48.0,29.76,South,191,0.0,-999.0,29,-99.99,,,0.00,weatherlink.com 1.10,2013-08-21 00:42:00,
2013-08-20 17:57:00,82.2,47.0,29.75,SE,139,1.0,-999.0,29,-99.99,,,0.00,weatherlink.com 1.10,2013-08-21 00:57:00,
2013-08-20 18:12:00,81.7,46.0,29.75,SW,222,0.0,-999.0,29,-99.99,,,0.00,weatherlink.com 1.10,2013-08-21 01:12:00,
2013-08-20 18:27:00,80.5,47.0,29.76,SW,224,0.0,-999.0,31,-99.99,,,0.00,weatherlink.com 1.10,2013-08-21 01:27:00,
2013-08-20 18:42:00,79.4,47.0,29.76,SW,224,0.0,-999.0,32,-99.99,,,0.00,weatherlink.com 1.10,2013-08-21 01:42:00,
2013-08-20 18:57:00,78.7,47.0,29.77,SW,224,0.0,-999.0,33,-99.99,,,0.00,weatherlink.com 1.10,2013-08-21 01:57:00,
2013-08-20 19:12:00,77.7,49.0,29.77,SW,224,0.0,-999.0,36,-99.99,,,0.00,weatherlink.com 1.10,2013-08-21 02:12:00,
2013-08-20 19:27:00,75.6,50.0,29.78,SW,224,0.0,-999.0,40,-99.99,,,0.00,weatherlink.com 1.10,2013-08-21 02:27:00,
2013-08-20 19:42:00,73.9,49.0,29.78,SW,224,0.0,-999.0,41,-99.99,,,0.00,weatherlink.com 1.10,2013-08-21 02:42:00,
2013-08-20 19:57:00,72.2,50.0,29.79,SW,224,0.0,-999.0,46,-99.99,,,0.00,weatherlink.com 1.10,2013-08-21 02:57:00,
2013-08-20 20:12:00,70.5,50.0,29.79,SW,224,0.0,-999.0,49,-99.99,,,0.00,weatherlink.com 1.10,2013-08-21 03:12:00,
2013-08-20 20:27:00,69.2,50.0,29.79,SW,224,0.0,-999.0,51,-99.99,,,0.00,weatherlink.com 1.10,2013-08-21 03:27:00,
2013-08-20 20:42:00,67.9,50.0,29.80,SW,224,0.0,-999.0,54,-99.99,,,0.00,weatherlink.com 1.10,2013-08-21 03:42:00,
2013-08-20 20:57:00,66.8,51.0,29.80,SW,224,0.0,-999.0,57,-99.99,,,0.00,weatherlink.com 1.10,2013-08-21 03:57:00,
2013-08-20 21:12:00,66.1,51.0,29.81,SW,224,1.0,-999.0,59,-99.99,,,0.00,weatherlink.com 1.10,2013-08-21 04:12:00,
2013-08-20 21:27:00,65.8,51.0,29.81,SW,224,0.0,-999.0,60,-99.99,,,0.00,weatherlink.com 1.10,2013-08-21 04:27:00,
2013-08-20 21:42:00,65.4,51.0,29.82,SW,224,0.0,-999.0,60,-99.99,,,0.00,weatherlink.com 1.10,2013-08-21 04:42:00,
2013-08-20 21:57:00,65.0,52.0,29.82,SW,224,0.0,-999.0,62,-99.99,,,0.00,weatherlink.com 1.10,2013-08-21 04:57:00,
2013-08-20 22:12:00,64.6,51.0,29.82,SW,224,0.0,-999.0,62,-99.99,,,0.00,weatherlink.com 1.10,2013-08-21 05:12:00,
2013-08-20 22:27:00,64.2,51.0,29.82,SW,224,0.0,-999.0,62,-99.99,,,0.00,weatherlink.com 1.10,2013-08-21 05:27:00,
2013-08-20 22:42:00,64.0,51.0,29.82,SW,224,0.0,-999.0,62,-99.99,,,0.00,weatherlink.com 1.10,2013-08-21 05:42:00,
2013-08-20 22:57:00,63.8,51.0,29.82,SW,224,0.0,-999.0,64,-99.99,,,0.00,weatherlink.com 1.10,2013-08-21 05:57:00,
2013-08-20 23:12:00,63.4,51.0,29.81,SW,224,0.0,-999.0,65,-99.99,,,0.00,weatherlink.com 1.10,2013-08-21 06:12:00,
2013-08-20 23:27:00,63.1,51.0,29.82,SW,224,0.0,-999.0,66,-99.99,,,0.00,weatherlink.com 1.10,2013-08-21 06:27:00,
2013-08-20 23:42:00,63.6,50.0,29.83,SW,224,0.0,-999.0,62,-99.99,,,0.00,weatherlink.com 1.10,2013-08-21 06:42:00,
2013-08-20 23:57:00,65.0,50.0,29.84,SW,224,0.0,-999.0,59,-99.99,,,0.00,weatherlink.com 1.10,2013-08-21 06:57:00,